Flag for U.S.A. Weather past 2 weeks in Casper, Wyoming, U.S.A.

Now
32 °F

Passing clouds.


Feels Like: 25 °F
Forecast: 29 / 44 °F
Wind: 8 mph from West

Location: Natrona County International Airport


UV Index: 0 (Low)

Visibility: 10 mi


Pressure: 29.80 "Hg

Humidity: 85%

Dew point: 28 °F

Location of CasperLocation

Historic Weather in Casper

°F

Casper temperature yesterday

Maximum temperature yesterday: 58 °F (at 1:53 PM)
Minimum temperature yesterday: 32 °F (at 11:53 PM)
Average temperature yesterday: 43 °F

Past Weeks' High & Low Weather Summary

 TemperatureHumidityPressure
High70 °F (Apr 9, 4:53 PM)100% (Apr 2, 6:53 AM)30.47 "Hg (Apr 2, 6:53 AM)
Low12 °F (Apr 13, 10:53 PM)14% (Apr 9, 4:53 PM)29.53 "Hg (Apr 15, 6:53 PM)
Average40 °F60%29.93 "Hg
* Reported Apr 1 2:53 AM — Apr 16 2:53 AM, Casper, Weather by CustomWeather, © 2014

Note: Actual official high and low records may vary slightly from our data, if they occured in-between our weather recording intervals... More about our weather records

Advertising

Historic Weather Conditions — Data for Previous 24 hours

 ConditionsComfort  
Time TempWeatherWind HumidityBarometerVisibility
2:53 AM
Apr 16
33 °FPassing clouds.7 mph88%29.76 "Hg10 mi
1:53 AM33 °FOvercast.6 mph92%29.74 "Hg10 mi
12:53 AM32 °FMostly cloudy.6 mph100%29.75 "Hg10 mi
11:53 PM
Apr 15
32 °FLight snow. Ice fog.7 mph100%29.73 "Hg4 mi
11:02 PM33 °FLight snow. Fog.23 mph92%29.74 "Hg2 mi
9:53 PM44 °FPassing clouds.15 mph47%29.60 "Hg10 mi
8:53 PM47 °FClear.16 mph41%29.57 "Hg10 mi
7:53 PM48 °FScattered clouds.14 mph37%29.55 "Hg10 mi
6:53 PM51 °FSunny.12 mph33%29.53 "Hg10 mi
4:53 PM56 °FSunny.23 mph23%29.54 "Hg10 mi
3:53 PM56 °FSunny.20 mph23%29.59 "Hg10 mi
2:53 PM57 °FSunny.25 mph17%29.62 "Hg10 mi
1:53 PM58 °FSunny.28 mph22%29.66 "Hg10 mi
12:53 PM54 °FSunny.17 mph27%29.72 "Hg10 mi
11:53 AM49 °FSunny.23 mph35%29.80 "Hg10 mi
10:53 AM43 °FScattered clouds.24 mph42%29.84 "Hg10 mi
9:53 AM40 °FPartly sunny.26 mph43%29.87 "Hg10 mi
8:53 AM38 °FPassing clouds.21 mph45%29.90 "Hg10 mi
7:53 AM38 °FPartly sunny.20 mph45%29.89 "Hg10 mi
6:53 AM37 °FClear.15 mph48%29.89 "Hg10 mi
5:53 AM37 °FClear.16 mph48%29.89 "Hg10 mi
4:53 AM37 °FClear.20 mph48%29.90 "Hg10 mi
Weather by CustomWeather, © 2014

See weather overview